sat.trackr.live / text

‹ back to catalog

STARLINK-31075

NORAD 58594 · 2023-200F

PAYLOAD ACTIVE UNKNOWN

§ Identity

Operator
Country
US
Launch date
2023-12-19
Launch site
AFETR
Launch vehicle
Mass (kg)
RCS (m²)

Purposes: comms

External: N2YO · Heavens-Above · Gunter

§ Orbital elements

Epoch: 2026-09-20T09:36:28.041120Z

Period
94.27 min
Inclination
43.0006°
Eccentricity
0.0000872
Mean motion
15.27582697 rev/d
Perigee alt
482.4 km
Apogee alt
483.6 km
Semi-major
6,861.2 km
B*
6.1159e-5
RAAN
148.8594°
Arg perigee
58.7898°
Mean anomaly
301.3039°
Rev number
15,339

§ Raw data

STARLINK-310751 58594U 23200F   26263.40032455  .00001421  00000+0  61159-4 0  99932 58594  43.0006 148.8594 0000872  58.7898 301.3039 15.27582697153399

JSON: /api/v1/satellites/58594 · /tle

For live sub-satellite position, see the globe view (requires WebGL).

§ Visibility from observer

Set your observer location to see the next 7 days of passes ≥ 10°. The values pass through the URL so the page stays shareable.

No JS? Fill the form by hand. The geolocation button needs JavaScript.